Location: Newark
(42.8481°N, 0.4872°E)
Time: 17:52:05
(UTC+00:00)

Vanguard 2 - Pass Details

Date: 28 October 2020
Orbit: 554 x 2937 km, 32.9° (Epoch: 24 November)

Event Time Altitude Azimuth Distance (km) Brightness Sun altitude
Rises 20:05:38 0° 242° (WSW) 5,365 12.4 -35.3°
Reaches altitude 10° 20:08:49 10° 238° (WSW) 4,641 11.9 -35.8°
Maximum altitude 20:22:22 55° 165° (SSE) 3,127 10.2 -38.2°
Enters shadow 20:23:15 54° 156° (SSE) 3,166 10.2 -38.3°
Drops below altitude 10° 20:39:27 10° 95° (E) 5,740 - -41.1°
Sets 20:43:55 0° 92° (E) 6,669 - -41.9°
